Year,Month,Day,Hour,Minute,Value (Times are PST for insolation in W/m^2)
2015,12,04,00,00,0.00
2015,12,04,00,01,0.00
2015,12,04,00,02,0.00
2015,12,04,00,03,0.00
2015,12,04,00,04,0.00
2015,12,04,00,05,0.00
2015,12,04,00,06,0.00
2015,12,04,00,07,0.00
2015,12,04,00,08,0.00
2015,12,04,00,09,0.00
2015,12,04,00,10,0.00
2015,12,04,00,11,0.00
2015,12,04,00,12,0.00
2015,12,04,00,13,0.00
2015,12,04,00,14,0.00
2015,12,04,00,15,0.00
2015,12,04,00,16,0.00
2015,12,04,00,17,0.00
2015,12,04,00,18,0.00
2015,12,04,00,19,0.00
2015,12,04,00,20,0.00
2015,12,04,00,21,0.00
2015,12,04,00,22,0.00
2015,12,04,00,23,0.00
2015,12,04,00,24,0.00
2015,12,04,00,25,0.00
2015,12,04,00,26,0.00
2015,12,04,00,27,0.00
2015,12,04,00,28,0.00
2015,12,04,00,29,0.00
2015,12,04,00,30,0.00
2015,12,04,00,31,0.00
2015,12,04,00,32,0.00
2015,12,04,00,33,0.00
2015,12,04,00,34,0.00
2015,12,04,00,35,0.00
2015,12,04,00,36,0.00
2015,12,04,00,37,0.00
2015,12,04,00,38,0.00
2015,12,04,00,39,0.00
2015,12,04,00,40,0.00
2015,12,04,00,41,0.00
2015,12,04,00,42,0.00
2015,12,04,00,43,0.00
2015,12,04,00,44,0.00
2015,12,04,00,45,0.00
2015,12,04,00,46,0.00
2015,12,04,00,47,0.00
2015,12,04,00,48,0.00
2015,12,04,00,49,0.00
2015,12,04,00,50,0.00
2015,12,04,00,51,0.00
2015,12,04,00,52,0.00
2015,12,04,00,53,0.00
2015,12,04,00,54,0.00
2015,12,04,00,55,0.00
2015,12,04,00,56,0.00
2015,12,04,00,57,0.00
2015,12,04,00,58,0.00
2015,12,04,00,59,0.00
2015,12,04,01,00,0.00
2015,12,04,01,01,0.00
2015,12,04,02,09,0.00
2015,12,04,02,10,0.00
2015,12,04,02,11,0.00
2015,12,04,02,12,0.00
2015,12,04,02,13,0.00
2015,12,04,02,14,0.00
2015,12,04,02,15,0.00
2015,12,04,02,16,0.00
2015,12,04,02,17,0.00
2015,12,04,02,18,0.00
2015,12,04,02,19,0.00
2015,12,04,02,20,0.00
2015,12,04,02,21,0.00
2015,12,04,02,22,0.00
2015,12,04,02,23,0.00
2015,12,04,02,24,0.00
2015,12,04,02,25,0.00
2015,12,04,02,26,0.00
2015,12,04,02,27,0.00
2015,12,04,02,28,0.00
2015,12,04,02,29,0.00
2015,12,04,02,30,0.00
2015,12,04,02,31,0.00
2015,12,04,02,32,0.00
2015,12,04,02,33,0.00
2015,12,04,02,34,0.00
2015,12,04,02,35,0.00
2015,12,04,02,36,0.00
2015,12,04,02,37,0.00
2015,12,04,02,38,0.00
2015,12,04,02,39,0.00
2015,12,04,02,40,0.00
2015,12,04,02,41,0.00
2015,12,04,02,42,0.00
2015,12,04,02,43,0.00
2015,12,04,02,44,0.00
2015,12,04,02,45,0.00
2015,12,04,02,46,0.00
2015,12,04,02,47,0.00
2015,12,04,02,48,0.00
2015,12,04,02,49,0.00
2015,12,04,02,50,0.00
2015,12,04,02,51,0.00
2015,12,04,02,52,0.00
2015,12,04,02,53,0.00
2015,12,04,02,54,0.00
2015,12,04,02,55,0.00
2015,12,04,02,56,0.00
2015,12,04,02,57,0.00
2015,12,04,02,58,0.00
2015,12,04,02,59,0.00
2015,12,04,03,00,0.00
2015,12,04,03,01,0.00
2015,12,04,03,02,0.00
2015,12,04,03,03,0.00
2015,12,04,03,04,0.00
2015,12,04,03,05,0.00
2015,12,04,03,06,0.00
2015,12,04,03,07,0.00
2015,12,04,03,08,0.00
2015,12,04,03,09,0.00
2015,12,04,03,10,0.00
2015,12,04,03,11,0.00
2015,12,04,03,12,0.00
2015,12,04,03,13,0.00
2015,12,04,03,14,0.00
2015,12,04,03,15,0.00
2015,12,04,03,16,0.00
2015,12,04,03,17,0.00
2015,12,04,03,18,0.00
2015,12,04,03,19,0.00
2015,12,04,03,20,0.00
2015,12,04,03,21,0.00
2015,12,04,03,22,0.00
2015,12,04,03,23,0.00
2015,12,04,03,24,0.00
2015,12,04,03,25,0.00
2015,12,04,03,26,0.00
2015,12,04,03,27,0.00
2015,12,04,03,28,0.00
2015,12,04,03,29,0.00
2015,12,04,03,30,0.00
2015,12,04,03,31,0.00
2015,12,04,03,32,0.00
2015,12,04,03,33,0.00
2015,12,04,03,34,0.00
2015,12,04,03,35,0.00
2015,12,04,03,36,0.00
2015,12,04,03,37,0.00
2015,12,04,03,38,0.00
2015,12,04,03,39,0.00
2015,12,04,03,40,0.00
2015,12,04,03,41,0.00
2015,12,04,03,42,0.00
2015,12,04,03,43,0.00
2015,12,04,03,44,0.00
2015,12,04,03,45,0.00
2015,12,04,03,46,0.00
2015,12,04,03,47,0.00
2015,12,04,03,48,0.00
2015,12,04,03,49,0.00
2015,12,04,03,50,0.00
2015,12,04,03,51,0.00
2015,12,04,03,52,0.00
2015,12,04,03,53,0.00
2015,12,04,03,54,0.00
2015,12,04,03,55,0.00
2015,12,04,03,56,0.00
2015,12,04,03,57,0.00
2015,12,04,03,58,0.00
2015,12,04,03,59,0.00
2015,12,04,04,00,0.00
2015,12,04,04,01,0.00
2015,12,04,04,02,0.00
2015,12,04,04,03,0.00
2015,12,04,04,04,0.00
2015,12,04,04,05,0.00
2015,12,04,04,06,0.00
2015,12,04,04,07,0.00
2015,12,04,04,08,0.00
2015,12,04,04,09,0.00
2015,12,04,04,10,0.00
2015,12,04,04,11,0.00
2015,12,04,04,12,0.00
2015,12,04,04,13,0.00
2015,12,04,04,14,0.00
2015,12,04,04,15,0.00
2015,12,04,04,16,0.00
2015,12,04,04,17,0.00
2015,12,04,04,18,0.00
2015,12,04,04,19,0.00
2015,12,04,04,20,0.00
2015,12,04,04,21,0.00
2015,12,04,04,22,0.00
2015,12,04,04,23,0.00
2015,12,04,04,24,0.00
2015,12,04,04,25,0.00
2015,12,04,04,26,0.00
2015,12,04,04,27,0.00
2015,12,04,04,28,0.00
2015,12,04,04,29,0.00
2015,12,04,04,30,0.00
2015,12,04,04,31,0.00
2015,12,04,04,32,0.00
2015,12,04,04,33,0.00
2015,12,04,04,34,0.00
2015,12,04,04,35,0.00
2015,12,04,04,36,0.00
2015,12,04,04,37,0.00
2015,12,04,04,38,0.00
2015,12,04,04,39,0.00
2015,12,04,04,40,0.00
2015,12,04,04,41,0.00
2015,12,04,04,42,0.00
2015,12,04,04,43,0.00
2015,12,04,04,44,0.00
2015,12,04,04,45,0.00
2015,12,04,04,46,0.00
2015,12,04,04,47,0.00
2015,12,04,04,48,0.00
2015,12,04,04,49,0.00
2015,12,04,04,50,0.00
2015,12,04,04,51,0.00
2015,12,04,04,52,0.00
2015,12,04,04,53,0.00
2015,12,04,04,54,0.00
2015,12,04,04,55,0.00
2015,12,04,04,56,0.00
2015,12,04,04,57,0.00
2015,12,04,04,58,0.00
2015,12,04,04,59,0.00
2015,12,04,05,00,0.00
2015,12,04,05,01,0.00
2015,12,04,05,02,0.00
2015,12,04,05,03,0.00
2015,12,04,05,04,0.00
2015,12,04,05,05,0.00
2015,12,04,05,06,0.00
2015,12,04,05,07,0.00
2015,12,04,05,08,0.00
2015,12,04,05,09,0.00
2015,12,04,05,10,0.00
2015,12,04,05,11,0.00
2015,12,04,05,12,0.00
2015,12,04,05,13,0.00
2015,12,04,05,14,0.00
2015,12,04,05,15,0.00
2015,12,04,05,16,0.00
2015,12,04,05,17,0.00
2015,12,04,05,18,0.00
2015,12,04,05,19,0.00
2015,12,04,05,20,0.00
2015,12,04,05,21,0.00
2015,12,04,05,22,0.00
2015,12,04,05,23,0.00
2015,12,04,05,24,0.00
2015,12,04,05,25,0.00
2015,12,04,05,26,0.00
2015,12,04,05,27,0.00
2015,12,04,05,28,0.00
2015,12,04,05,29,0.00
2015,12,04,05,30,0.00
2015,12,04,05,31,0.00
2015,12,04,05,32,0.00
2015,12,04,05,33,0.00
2015,12,04,05,34,0.00
2015,12,04,05,35,0.00
2015,12,04,05,36,0.00
2015,12,04,05,37,0.00
2015,12,04,05,38,0.00
2015,12,04,05,39,0.00
2015,12,04,05,40,0.00
2015,12,04,05,41,0.00
2015,12,04,05,42,0.00
2015,12,04,05,43,0.00
2015,12,04,05,44,0.00
2015,12,04,05,45,0.00
2015,12,04,05,46,0.00
2015,12,04,05,47,0.00
2015,12,04,05,48,0.00
2015,12,04,05,49,0.00
2015,12,04,05,50,0.00
2015,12,04,05,51,0.00
2015,12,04,05,52,0.00
2015,12,04,05,53,0.00
2015,12,04,05,54,0.00
2015,12,04,05,55,0.00
2015,12,04,05,56,0.00
2015,12,04,05,57,0.00
2015,12,04,05,58,0.00
2015,12,04,05,59,0.00
2015,12,04,06,00,0.00
2015,12,04,06,01,0.00
2015,12,04,06,02,0.00
2015,12,04,06,03,0.00
2015,12,04,06,04,0.00
2015,12,04,06,05,0.00
2015,12,04,06,06,0.00
2015,12,04,06,07,0.00
2015,12,04,06,08,0.00
2015,12,04,06,09,0.00
2015,12,04,06,10,0.00
2015,12,04,06,11,0.00
2015,12,04,06,12,0.00
2015,12,04,06,13,0.00
2015,12,04,06,14,0.00
2015,12,04,06,15,0.00
2015,12,04,06,16,0.00
2015,12,04,06,17,0.00
2015,12,04,06,18,0.00
2015,12,04,06,19,0.00
2015,12,04,06,20,0.00
2015,12,04,06,21,0.00
2015,12,04,06,22,0.00
2015,12,04,06,23,0.00
2015,12,04,06,24,0.00
2015,12,04,06,25,0.00
2015,12,04,06,26,0.00
2015,12,04,06,27,0.00
2015,12,04,06,28,0.00
2015,12,04,06,29,0.00
2015,12,04,06,30,0.00
2015,12,04,06,31,0.00
2015,12,04,06,32,0.00
2015,12,04,06,33,0.00
2015,12,04,06,34,0.00
2015,12,04,06,35,0.00
2015,12,04,06,36,0.00
2015,12,04,06,37,0.00
2015,12,04,06,38,0.00
2015,12,04,06,39,0.00
2015,12,04,06,40,0.00
2015,12,04,06,41,0.00
2015,12,04,06,42,0.00
2015,12,04,06,43,0.00
2015,12,04,06,44,0.00
2015,12,04,06,45,0.00
2015,12,04,06,46,0.00
2015,12,04,06,47,0.00
2015,12,04,06,48,0.00
2015,12,04,06,49,0.00
2015,12,04,06,50,0.00
2015,12,04,06,51,0.00
2015,12,04,06,52,0.00
2015,12,04,06,53,0.00
2015,12,04,06,54,0.00
2015,12,04,06,55,0.00
2015,12,04,06,56,0.00
2015,12,04,06,57,0.00
2015,12,04,06,58,0.00
2015,12,04,06,59,0.00
2015,12,04,07,00,0.00
2015,12,04,07,01,0.00
2015,12,04,07,02,0.00
2015,12,04,07,03,0.00
2015,12,04,07,04,0.00
2015,12,04,07,05,0.00
2015,12,04,07,06,0.00
2015,12,04,07,07,0.00
2015,12,04,07,08,0.00
2015,12,04,07,09,0.00
2015,12,04,07,10,0.00
2015,12,04,07,11,0.00
2015,12,04,07,12,0.00
2015,12,04,07,13,0.00
2015,12,04,07,14,0.00
2015,12,04,07,15,0.00
2015,12,04,07,16,0.00
2015,12,04,07,17,0.00
2015,12,04,07,18,0.00
2015,12,04,07,19,0.00
2015,12,04,07,20,0.00
2015,12,04,07,21,0.00
2015,12,04,07,22,0.00
2015,12,04,07,23,0.00
2015,12,04,07,24,0.00
2015,12,04,07,25,0.00
2015,12,04,07,26,0.00
2015,12,04,07,27,0.00
2015,12,04,07,28,0.00
2015,12,04,07,29,0.00
2015,12,04,07,30,0.00
2015,12,04,07,31,0.00
2015,12,04,07,32,0.00
2015,12,04,07,33,0.00
2015,12,04,07,34,0.00
2015,12,04,07,35,0.00
2015,12,04,07,36,0.00
2015,12,04,07,37,0.00
2015,12,04,07,38,0.00
2015,12,04,07,39,0.00
2015,12,04,07,40,0.00
2015,12,04,07,41,0.00
2015,12,04,07,42,0.00
2015,12,04,07,43,0.00
2015,12,04,07,44,0.00
2015,12,04,07,45,0.00
2015,12,04,07,46,0.00
2015,12,04,07,47,0.00
2015,12,04,07,48,0.00
2015,12,04,07,49,0.00
2015,12,04,07,50,0.00
2015,12,04,07,51,0.00
2015,12,04,07,52,0.00
2015,12,04,07,53,0.00
2015,12,04,07,54,0.00
2015,12,04,07,55,0.00
2015,12,04,07,56,0.00
2015,12,04,07,57,0.00
2015,12,04,07,58,0.00
2015,12,04,07,59,0.00
2015,12,04,08,00,0.00
2015,12,04,08,01,0.00
2015,12,04,08,02,0.00
2015,12,04,08,03,0.00
2015,12,04,08,04,0.00
2015,12,04,08,05,0.00
2015,12,04,08,06,0.00
2015,12,04,08,07,0.00
2015,12,04,08,08,0.00
2015,12,04,08,09,0.00
2015,12,04,08,10,0.00
2015,12,04,08,11,0.00
2015,12,04,08,12,0.00
2015,12,04,08,13,0.00
2015,12,04,08,14,0.70
2015,12,04,08,15,5.00
2015,12,04,08,16,5.00
2015,12,04,08,17,5.00
2015,12,04,08,18,5.80
2015,12,04,08,19,7.00
2015,12,04,08,20,8.00
2015,12,04,08,21,9.00
2015,12,04,08,22,10.30
2015,12,04,08,23,11.00
2015,12,04,08,24,11.00
2015,12,04,08,25,11.00
2015,12,04,08,26,11.00
2015,12,04,08,27,11.00
2015,12,04,08,28,11.00
2015,12,04,08,29,11.00
2015,12,04,08,30,11.00
2015,12,04,08,31,11.00
2015,12,04,08,32,11.00
2015,12,04,08,33,11.00
2015,12,04,08,34,11.00
2015,12,04,08,35,11.00
2015,12,04,08,36,11.00
2015,12,04,08,37,11.00
2015,12,04,08,38,11.00
2015,12,04,08,39,11.00
2015,12,04,08,40,11.00
2015,12,04,08,41,11.00
2015,12,04,08,42,11.00
2015,12,04,08,43,9.00
2015,12,04,08,44,9.00
2015,12,04,08,45,9.00
2015,12,04,08,46,9.00
2015,12,04,08,47,9.00
2015,12,04,08,48,9.00
2015,12,04,08,49,9.90
2015,12,04,08,50,11.00
2015,12,04,08,51,11.00
2015,12,04,08,52,11.00
2015,12,04,08,53,11.00
2015,12,04,08,54,11.00
2015,12,04,08,55,11.00
2015,12,04,08,56,11.00
2015,12,04,08,57,12.00
2015,12,04,08,58,12.20
2015,12,04,08,59,14.00
2015,12,04,09,00,14.00
2015,12,04,09,01,14.50
2015,12,04,09,02,16.70
2015,12,04,09,03,18.40
2015,12,04,09,04,20.80
2015,12,04,09,05,25.60
2015,12,04,09,06,32.00
2015,12,04,09,07,41.80
2015,12,04,09,08,49.40
2015,12,04,09,09,56.30
2015,12,04,09,10,61.20
2015,12,04,09,11,62.00
2015,12,04,09,12,60.10
2015,12,04,09,13,59.90
2015,12,04,09,14,57.70
2015,12,04,09,15,55.60
2015,12,04,09,16,53.80
2015,12,04,09,17,51.10
2015,12,04,09,18,45.90
2015,12,04,09,19,41.90
2015,12,04,09,20,37.00
2015,12,04,09,21,35.00
2015,12,04,09,22,35.00
2015,12,04,09,23,35.00
2015,12,04,09,24,35.00
2015,12,04,09,25,35.00
2015,12,04,09,26,33.20
2015,12,04,09,27,33.00
2015,12,04,09,28,32.00
2015,12,04,09,29,31.00
2015,12,04,09,30,24.20
2015,12,04,09,31,20.50
2015,12,04,09,32,19.00
2015,12,04,09,33,18.60
2015,12,04,09,34,18.00
2015,12,04,09,35,18.00
2015,12,04,09,36,18.00
2015,12,04,09,37,18.00
2015,12,04,09,38,18.00
2015,12,04,09,39,18.00
2015,12,04,09,40,18.80
2015,12,04,09,41,19.00
2015,12,04,09,42,20.90
2015,12,04,09,43,21.00
2015,12,04,09,44,20.70
2015,12,04,09,45,19.00
2015,12,04,09,46,19.00
2015,12,04,09,47,19.00
2015,12,04,09,48,18.60
2015,12,04,09,49,18.00
2015,12,04,09,50,18.00
2015,12,04,09,51,18.00
2015,12,04,09,52,18.00
2015,12,04,09,53,18.70
2015,12,04,09,54,20.50
2015,12,04,09,55,25.10
2015,12,04,09,56,26.00
2015,12,04,09,57,36.50
2015,12,04,09,58,48.50
2015,12,04,09,59,67.30
2015,12,04,10,00,108.40
2015,12,04,10,01,202.60
2015,12,04,10,02,281.70
2015,12,04,10,03,303.10
2015,12,04,10,04,317.10
2015,12,04,10,05,319.90
2015,12,04,10,06,318.00
2015,12,04,10,07,253.00
2015,12,04,10,08,216.40
2015,12,04,10,09,228.70
2015,12,04,10,10,229.50
2015,12,04,10,11,229.00
2015,12,04,10,12,253.80
2015,12,04,10,13,346.00
2015,12,04,10,14,327.40
2015,12,04,10,15,216.00
2015,12,04,10,16,216.00
2015,12,04,10,17,216.00
2015,12,04,10,18,216.00
2015,12,04,10,19,272.80
2015,12,04,10,20,341.00
2015,12,04,10,21,259.90
2015,12,04,10,22,223.20
2015,12,04,10,23,190.60
2015,12,04,10,24,172.00
2015,12,04,10,25,265.10
2015,12,04,10,26,335.40
2015,12,04,10,27,354.40
2015,12,04,10,28,381.70
2015,12,04,10,29,397.00
2015,12,04,10,30,396.90
2015,12,04,10,31,381.10
2015,12,04,10,32,402.00
2015,12,04,10,33,381.20
2015,12,04,10,34,367.00
2015,12,04,10,35,245.50
2015,12,04,10,36,131.00
2015,12,04,10,37,164.30
2015,12,04,10,38,120.70
2015,12,04,10,39,100.30
2015,12,04,10,40,98.70
2015,12,04,10,41,97.10
2015,12,04,10,42,88.40
2015,12,04,10,43,159.60
2015,12,04,10,44,172.40
2015,12,04,10,45,144.70
2015,12,04,10,46,131.40
2015,12,04,10,47,166.30
2015,12,04,10,48,172.60
2015,12,04,10,49,187.10
2015,12,04,10,50,195.00
2015,12,04,10,51,202.30
2015,12,04,10,52,191.90
2015,12,04,10,53,132.10
2015,12,04,10,54,123.20
2015,12,04,10,55,127.00
2015,12,04,10,56,251.90
2015,12,04,10,57,255.50
2015,12,04,10,58,255.00
2015,12,04,10,59,255.00
2015,12,04,11,00,255.00
2015,12,04,11,01,232.10
2015,12,04,11,02,171.00
2015,12,04,11,03,171.00
2015,12,04,11,04,171.00
2015,12,04,11,05,201.40
2015,12,04,11,06,229.00
2015,12,04,11,07,229.00
2015,12,04,11,08,183.30
2015,12,04,11,09,165.00
2015,12,04,11,10,258.30
2015,12,04,11,11,279.00
2015,12,04,11,12,137.10
2015,12,04,11,13,133.30
2015,12,04,11,14,118.00
2015,12,04,11,15,130.00
2015,12,04,11,16,182.40
2015,12,04,11,17,324.30
2015,12,04,11,18,329.40
2015,12,04,11,19,306.00
2015,12,04,11,20,274.00
2015,12,04,11,21,192.90
2015,12,04,11,22,132.00
2015,12,04,11,23,132.00
2015,12,04,11,24,132.00
2015,12,04,11,25,132.00
2015,12,04,11,26,138.00
2015,12,04,11,27,141.90
2015,12,04,11,28,155.80
2015,12,04,11,29,152.60
2015,12,04,11,30,164.70
2015,12,04,11,31,174.50
2015,12,04,11,32,175.00
2015,12,04,11,33,148.50
2015,12,04,11,34,110.00
2015,12,04,11,35,78.50
2015,12,04,11,36,61.90
2015,12,04,11,37,59.20
2015,12,04,11,38,64.80
2015,12,04,11,39,86.80
2015,12,04,11,40,157.60
2015,12,04,11,41,150.30
2015,12,04,11,42,159.40
2015,12,04,11,43,227.40
2015,12,04,11,44,250.60
2015,12,04,11,45,248.00
2015,12,04,11,46,263.30
2015,12,04,11,47,285.30
2015,12,04,11,48,282.70
2015,12,04,11,49,339.00
2015,12,04,11,50,339.00
2015,12,04,11,51,421.30
2015,12,04,11,52,483.00
2015,12,04,11,53,394.40
2015,12,04,11,54,320.10
2015,12,04,11,55,308.00
2015,12,04,11,56,396.10
2015,12,04,11,57,410.00
2015,12,04,11,58,283.50
2015,12,04,11,59,336.10
2015,12,04,12,00,325.00
2015,12,04,12,01,325.00
2015,12,04,12,02,345.70
2015,12,04,12,03,390.00
2015,12,04,12,04,447.40
2015,12,04,12,05,497.50
2015,12,04,12,06,465.30
2015,12,04,12,07,466.00
2015,12,04,12,08,464.20
2015,12,04,12,09,449.80
2015,12,04,12,10,415.20
2015,12,04,12,11,374.30
2015,12,04,12,12,325.20
2015,12,04,12,13,250.30
2015,12,04,12,14,215.60
2015,12,04,12,15,168.90
2015,12,04,12,16,155.60
2015,12,04,12,17,144.70
2015,12,04,12,18,128.50
2015,12,04,12,19,94.00
2015,12,04,12,20,81.00
2015,12,04,12,21,70.90
2015,12,04,12,22,61.30
2015,12,04,12,23,53.00
2015,12,04,12,24,44.10
2015,12,04,12,25,38.00
2015,12,04,12,26,32.70
2015,12,04,12,27,28.20
2015,12,04,12,28,25.90
2015,12,04,12,29,25.00
2015,12,04,12,30,25.00
2015,12,04,12,31,25.20
2015,12,04,12,32,27.30
2015,12,04,12,33,31.10
2015,12,04,12,34,34.80
2015,12,04,12,35,38.00
2015,12,04,12,36,39.00
2015,12,04,12,37,37.80
2015,12,04,12,38,35.60
2015,12,04,12,39,35.00
2015,12,04,12,40,36.60
2015,12,04,12,41,41.50
2015,12,04,12,42,45.80
2015,12,04,12,43,54.50
2015,12,04,12,44,73.70
2015,12,04,12,45,110.00
2015,12,04,12,46,144.00
2015,12,04,12,47,158.60
2015,12,04,12,48,190.00
2015,12,04,12,49,190.00
2015,12,04,12,50,190.00
2015,12,04,12,51,202.00
2015,12,04,12,52,186.20
2015,12,04,12,53,162.00
2015,12,04,12,54,152.70
2015,12,04,12,55,155.00
2015,12,04,12,56,161.20
2015,12,04,12,57,156.30
2015,12,04,12,58,150.40
2015,12,04,12,59,142.70
2015,12,04,13,00,134.80
2015,12,04,13,01,143.20
2015,12,04,13,02,179.90
2015,12,04,13,03,199.40
2015,12,04,13,04,194.00
2015,12,04,13,05,175.50
2015,12,04,13,06,154.10
2015,12,04,13,07,137.10
2015,12,04,13,08,125.60
2015,12,04,13,09,126.00
2015,12,04,13,10,131.00
2015,12,04,13,11,144.10
2015,12,04,13,12,157.40
2015,12,04,13,13,153.00
2015,12,04,13,14,153.70
2015,12,04,13,15,157.60
2015,12,04,13,16,153.60
2015,12,04,13,17,144.40
2015,12,04,13,18,139.50
2015,12,04,13,19,135.70
2015,12,04,13,20,138.00
2015,12,04,13,21,153.40
2015,12,04,13,22,168.40
2015,12,04,13,23,172.00
2015,12,04,13,24,287.00
2015,12,04,13,25,313.30
2015,12,04,13,26,318.80
2015,12,04,13,27,320.00
2015,12,04,13,28,148.60
2015,12,04,13,29,95.50
2015,12,04,13,30,64.50
2015,12,04,13,31,53.70
2015,12,04,13,32,52.30
2015,12,04,13,33,51.00
2015,12,04,13,34,53.30
2015,12,04,13,35,54.40
2015,12,04,13,36,51.90
2015,12,04,13,37,49.80
2015,12,04,13,38,47.00
2015,12,04,13,39,46.00
2015,12,04,13,40,41.10
2015,12,04,13,41,40.00
2015,12,04,13,42,40.00
2015,12,04,13,43,42.20
2015,12,04,13,44,44.70
2015,12,04,13,45,49.80
2015,12,04,13,46,53.80
2015,12,04,13,47,56.00
2015,12,04,13,48,56.00
2015,12,04,13,49,55.10
2015,12,04,13,50,53.50
2015,12,04,13,51,53.00
2015,12,04,13,52,74.00
2015,12,04,13,53,94.60
2015,12,04,13,54,122.40
2015,12,04,13,55,86.60
2015,12,04,13,56,118.60
2015,12,04,13,57,175.40
2015,12,04,13,58,102.50
2015,12,04,13,59,190.50
2015,12,04,14,00,170.70
2015,12,04,14,01,114.50
2015,12,04,14,02,78.00
2015,12,04,14,03,67.40
2015,12,04,14,04,58.20
2015,12,04,14,05,56.00
2015,12,04,14,06,54.30
2015,12,04,14,07,53.00
2015,12,04,14,08,53.00
2015,12,04,14,09,53.00
2015,12,04,14,10,53.80
2015,12,04,14,11,60.90
2015,12,04,14,12,76.30
2015,12,04,14,13,85.00
2015,12,04,14,14,95.40
2015,12,04,14,15,99.30
2015,12,04,14,16,106.40
2015,12,04,14,17,111.00
2015,12,04,14,18,108.70
2015,12,04,14,19,102.90
2015,12,04,14,20,96.50
2015,12,04,14,21,90.10
2015,12,04,14,22,85.50
2015,12,04,14,23,83.30
2015,12,04,14,24,78.40
2015,12,04,14,25,71.30
2015,12,04,14,26,65.70
2015,12,04,14,27,62.10
2015,12,04,14,28,59.80
2015,12,04,14,29,57.70
2015,12,04,14,30,56.80
2015,12,04,14,31,61.40
2015,12,04,14,32,66.70
2015,12,04,14,33,72.30
2015,12,04,14,34,77.30
2015,12,04,14,35,83.50
2015,12,04,14,36,89.70
2015,12,04,14,37,94.80
2015,12,04,14,38,104.10
2015,12,04,14,39,110.00
2015,12,04,14,40,111.00
2015,12,04,14,41,105.60
2015,12,04,14,42,98.30
2015,12,04,14,43,96.50
2015,12,04,14,44,80.40
2015,12,04,14,45,77.40
2015,12,04,14,46,78.50
2015,12,04,14,47,77.00
2015,12,04,14,48,77.80
2015,12,04,14,49,81.10
2015,12,04,14,50,88.50
2015,12,04,14,51,98.10
2015,12,04,14,52,109.00
2015,12,04,14,53,121.60
2015,12,04,14,54,131.90
2015,12,04,14,55,134.00
2015,12,04,14,56,134.00
2015,12,04,14,57,134.00
2015,12,04,14,58,134.00
2015,12,04,14,59,134.00
2015,12,04,15,00,135.90
2015,12,04,15,01,143.20
2015,12,04,15,02,137.30
2015,12,04,15,03,128.10
2015,12,04,15,04,119.50
2015,12,04,15,05,113.00
2015,12,04,15,06,111.90
2015,12,04,15,07,106.50
2015,12,04,15,08,94.70
2015,12,04,15,09,83.40
2015,12,04,15,10,73.60
2015,12,04,15,11,63.00
2015,12,04,15,12,54.40
2015,12,04,15,13,46.70
2015,12,04,15,14,43.70
2015,12,04,15,15,41.40
2015,12,04,15,16,37.90
2015,12,04,15,17,33.30
2015,12,04,15,18,29.20
2015,12,04,15,19,27.10
2015,12,04,15,20,26.00
2015,12,04,15,21,26.00
2015,12,04,15,22,25.40
2015,12,04,15,23,25.00
2015,12,04,15,24,25.00
2015,12,04,15,25,23.40
2015,12,04,15,26,23.00
2015,12,04,15,27,21.10
2015,12,04,15,28,18.90
2015,12,04,15,29,18.00
2015,12,04,15,30,18.00
2015,12,04,15,31,18.00
2015,12,04,15,32,18.00
2015,12,04,15,33,18.00
2015,12,04,15,34,17.10
2015,12,04,15,35,15.00
2015,12,04,15,36,14.00
2015,12,04,15,37,12.80
2015,12,04,15,38,12.00
2015,12,04,15,39,12.00
2015,12,04,15,40,13.60
2015,12,04,15,41,14.00
2015,12,04,15,42,12.10
2015,12,04,15,43,12.00
2015,12,04,15,44,12.00
2015,12,04,15,45,11.80
2015,12,04,15,46,11.00
2015,12,04,15,47,11.00
2015,12,04,15,48,11.00
2015,12,04,15,49,10.10
2015,12,04,15,50,9.00
2015,12,04,15,51,7.90
2015,12,04,15,52,7.00
2015,12,04,15,53,5.60
2015,12,04,15,54,5.00
2015,12,04,15,55,5.00
2015,12,04,15,56,5.00
2015,12,04,15,57,5.00
2015,12,04,15,58,5.00
2015,12,04,15,59,5.00
2015,12,04,16,00,5.40
2015,12,04,16,01,7.00
2015,12,04,16,02,7.00
2015,12,04,16,03,7.00
2015,12,04,16,04,7.00
2015,12,04,16,05,7.00
2015,12,04,16,06,7.00
2015,12,04,16,07,7.00
2015,12,04,16,08,7.00
2015,12,04,16,09,8.50
2015,12,04,16,10,10.60
2015,12,04,16,11,9.30
2015,12,04,16,12,7.10
2015,12,04,16,13,4.80
2015,12,04,16,14,0.00
2015,12,04,16,15,0.00
2015,12,04,16,16,0.00
2015,12,04,16,17,0.00
2015,12,04,16,18,0.00
2015,12,04,16,19,0.00
2015,12,04,16,20,0.00
2015,12,04,16,21,0.00
2015,12,04,16,22,0.00
2015,12,04,16,23,0.00
2015,12,04,16,24,0.00
2015,12,04,16,25,0.00
2015,12,04,16,26,0.00
2015,12,04,16,27,0.00
2015,12,04,16,28,0.00
2015,12,04,16,29,0.00
2015,12,04,16,30,0.00
2015,12,04,16,31,0.00
2015,12,04,16,32,0.00
2015,12,04,16,33,0.00
2015,12,04,16,34,0.00
2015,12,04,16,35,0.00
2015,12,04,16,36,0.00
2015,12,04,16,37,0.00
2015,12,04,16,38,0.00
2015,12,04,16,39,0.00
2015,12,04,16,40,0.00
2015,12,04,16,41,0.00
2015,12,04,16,42,0.00
2015,12,04,16,43,0.00
2015,12,04,16,44,0.00
2015,12,04,16,45,0.00
2015,12,04,16,46,0.00
2015,12,04,16,47,0.00
2015,12,04,16,48,0.00
2015,12,04,16,49,0.00
2015,12,04,16,50,0.00
2015,12,04,16,51,0.00
2015,12,04,16,52,0.00
2015,12,04,16,53,0.00
2015,12,04,16,54,0.00
2015,12,04,16,55,0.00
2015,12,04,16,56,0.00
2015,12,04,16,57,0.00
2015,12,04,16,58,0.00
2015,12,04,16,59,0.00
2015,12,04,17,00,0.00
2015,12,04,17,01,0.00
2015,12,04,17,02,0.00
2015,12,04,17,03,0.00
2015,12,04,17,04,0.00
2015,12,04,17,05,0.00
2015,12,04,17,06,0.00
2015,12,04,17,07,0.00
2015,12,04,17,08,0.00
2015,12,04,17,09,0.00
2015,12,04,17,10,0.00
2015,12,04,17,11,0.00
2015,12,04,17,12,0.00
2015,12,04,17,13,0.00
2015,12,04,17,14,0.00
2015,12,04,17,15,0.00
2015,12,04,17,16,0.00
2015,12,04,17,17,0.00
2015,12,04,17,18,0.00
2015,12,04,17,19,0.00
2015,12,04,17,20,0.00
2015,12,04,17,21,0.00
2015,12,04,17,22,0.00
2015,12,04,17,23,0.00
2015,12,04,17,24,0.00
2015,12,04,17,25,0.00
2015,12,04,17,26,0.00
2015,12,04,17,27,0.00
2015,12,04,17,28,0.00
2015,12,04,17,29,0.00
2015,12,04,17,30,0.00
2015,12,04,17,31,0.00
2015,12,04,17,32,0.00
2015,12,04,17,33,0.00
2015,12,04,17,34,0.00
2015,12,04,17,35,0.00
2015,12,04,17,36,0.00
2015,12,04,17,37,0.00
2015,12,04,17,38,0.00
2015,12,04,17,39,0.00
2015,12,04,17,40,0.00
2015,12,04,17,41,0.00
2015,12,04,17,42,0.00
2015,12,04,17,43,0.00
2015,12,04,17,44,0.00
2015,12,04,17,45,0.00
2015,12,04,17,46,0.00
2015,12,04,17,47,0.00
2015,12,04,17,48,0.00
2015,12,04,17,49,0.00
2015,12,04,17,50,0.00
2015,12,04,17,51,0.00
2015,12,04,17,52,0.00
2015,12,04,17,53,0.00
2015,12,04,17,54,0.00
2015,12,04,17,55,0.00
2015,12,04,17,56,0.00
2015,12,04,17,57,0.00
2015,12,04,17,58,0.00
2015,12,04,17,59,0.00
2015,12,04,18,00,0.00
2015,12,04,18,01,0.00
2015,12,04,18,02,0.00
2015,12,04,18,03,0.00
2015,12,04,18,04,0.00
2015,12,04,18,05,0.00
2015,12,04,18,06,0.00
2015,12,04,18,07,0.00
2015,12,04,18,08,0.00
2015,12,04,18,09,0.00
2015,12,04,18,10,0.00
2015,12,04,18,11,0.00
2015,12,04,18,12,0.00
2015,12,04,18,13,0.00
2015,12,04,18,14,0.00
2015,12,04,18,15,0.00
2015,12,04,18,16,0.00
2015,12,04,18,17,0.00
2015,12,04,18,18,0.00
2015,12,04,18,19,0.00
2015,12,04,18,20,0.00
2015,12,04,18,21,0.00
2015,12,04,18,22,0.00
2015,12,04,18,23,0.00
2015,12,04,18,24,0.00
2015,12,04,18,25,0.00
2015,12,04,18,26,0.00
2015,12,04,18,27,0.00
2015,12,04,18,28,0.00
2015,12,04,18,29,0.00
2015,12,04,18,30,0.00
2015,12,04,18,31,0.00
2015,12,04,18,32,0.00
2015,12,04,18,33,0.00
2015,12,04,18,34,0.00
2015,12,04,18,35,0.00
2015,12,04,18,36,0.00
2015,12,04,18,37,0.00
2015,12,04,18,38,0.00
2015,12,04,18,39,0.00
2015,12,04,18,40,0.00
2015,12,04,18,41,0.00
2015,12,04,18,42,0.00
2015,12,04,18,43,0.00
2015,12,04,18,44,0.00